SCP
0 0 0 0 0 0 0 0 0 0 0 0 0 0 0 0 0 0 0 0 0 0
0 0 0 0 0 0 0 0 0 0 0 0 0 0 0 0 0 0 0 0 0 0
0 0 0 0 0 0 0 0 0 0 0 0 0 0 0 0 0 0 0 0 0 0
0 0 0 0 0 0 0 0 0 0 0 0 0 0 0 0 0 0 0 0 0 0
0 0 0 0 0 0 0 0 0 0 0 0 0 0 0 0 0 0 0 0 0 0
0 0 0 0 0 0 0 0 0 0 0 0 0 0 0 0 0 0 0 0 0 0
0 0 0 0 0 0 0 0 0 0 0 0 0 0 0 0 0 0 0 0 0 0
0 0 0 0 0 0 0 0 0 0 0 0 0 0 0 0 0 0 0 0 0 0
0 0 0 0 0 0 0 0 0 0 0 0 0 0 0 0 0 0 0 0 0 0
0 0 0 0 0 0 0 0 0 0 0 0 0 0 0 0 0 0 0 0 0 0
0 0 0 0 0 0 0 0 0 0 0 0 0 0 0 0 0 0 0 0 0 0
0 0 0 0 0 0 0 0 0 0 0 0 0 0 0 0 0 0 0 0 0 0
0 0 0 0 0 0 0 0 0 0 0 0 0 0 0 0 0 0 0 0 0 0
0 0 0 0 0 0 0 0 0 0 0 0 0 0 0 0 0 0 0 0 0 0
Wind_Speed_500mb
27 24 19 15 13 9 6 3 1 5 10 14 16 20 24 26 28 30 32 33 35 39
27 23 20 17 15 12 8 4 1 5 10 16 21 23 25 26 29 31 34 36 38 43
29 26 23 19 15 11 7 1 4 10 15 19 23 27 29 31 32 34 38 42 45 48
32 28 24 20 15 11 6 3 7 14 21 26 28 30 32 33 37 41 44 47 50 53
36 31 25 21 16 13 8 7 14 20 24 28 29 31 34 36 39 42 47 50 53 57
39 33 30 24 20 16 12 14 18 23 24 26 29 33 36 39 43 46 49 52 57 61
45 38 33 28 23 21 21 23 25 26 27 29 33 37 41 44 46 47 49 55 60 63
49 43 38 33 29 30 30 30 32 33 32 32 34 39 43 46 49 50 53 57 61 63
52 49 44 38 37 35 36 38 40 39 37 36 37 39 44 50 52 54 57 61 63 65
57 52 48 45 43 43 45 47 47 45 43 42 41 42 47 52 54 57 59 62 64 67
57 55 52 51 49 51 52 53 52 52 50 48 45 47 50 56 58 58 61 62 64 66
57 58 57 54 53 54 55 57 56 55 54 52 50 53 57 59 59 59 61 63 63 66
53 55 54 52 52 52 54 55 57 57 57 56 56 56 57 58 58 59 60 60 61 62
45 48 50 52 54 53 51 54 57 58 59 61 60 60 58 58 58 56 56 58 62 58
Wind_Direction_500mb
170 170 169 173 173 162 152 144 40 340 346 347 343 339 338 336 336 334 333 333 331 329
180 180 181 181 180 181 189 191 287 349 349 349 341 338 334 332 332 331 330 329 328 326
188 188 188 187 191 190 181 174 347 348 343 339 335 333 331 330 329 329 328 328 327 325
195 195 193 194 196 200 208 284 330 342 339 335 330 325 324 325 327 328 327 326 326 324
205 200 202 204 206 217 240 292 328 331 327 325 323 320 320 323 324 324 325 325 326 324
209 210 212 214 220 237 261 294 304 313 318 318 316 316 317 319 321 322 324 325 324 323
217 217 220 224 233 250 266 279 289 298 306 309 313 317 316 314 314 316 318 319 319 319
219 221 226 233 242 253 263 273 280 286 292 298 308 315 313 310 309 310 313 314 315 316
223 226 232 239 248 257 265 272 277 278 283 290 300 309 311 308 306 307 310 313 315 316
229 231 237 244 253 263 269 272 275 275 279 281 290 300 307 306 304 305 309 312 314 315
233 235 240 248 257 264 270 274 275 274 276 281 290 299 305 304 302 305 308 311 313 314
235 237 244 253 261 267 272 274 274 273 276 281 288 298 302 300 298 302 305 309 313 315
236 240 250 258 263 267 271 273 273 275 278 282 289 294 295 292 293 298 302 305 310 311
241 246 253 256 257 262 268 273 273 275 278 280 285 290 290 288 291 295 298 303 307 309
Wind_Speed_850mb
27 24 19 15 13 9 6 3 1 5 10 14 16 20 24 26 28 30 32 33 35 39
27 23 20 17 15 12 8 4 1 5 10 16 21 23 25 26 29 31 34 36 38 43
29 26 23 19 15 11 7 1 4 10 15 19 23 27 29 31 32 34 38 42 45 48
32 28 24 20 15 11 6 3 7 14 21 26 28 30 32 33 37 41 44 47 50 53
36 31 25 21 16 13 8 7 14 20 24 28 29 31 34 36 39 42 47 50 53 57
39 33 30 24 20 16 12 14 18 23 24 26 29 33 36 39 43 46 49 52 57 61
45 38 33 28 23 21 21 23 25 26 27 29 33 37 41 44 46 47 49 55 60 63
49 43 38 33 29 30 30 30 32 33 32 32 34 39 43 46 49 50 53 57 61 63
52 49 44 38 37 35 36 38 40 39 37 36 37 39 44 50 52 54 57 61 63 65
57 52 48 45 43 43 45 47 47 45 43 42 41 42 47 52 54 57 59 62 64 67
57 55 52 51 49 51 52 53 52 52 50 48 45 47 50 56 58 58 61 62 64 66
57 58 57 54 53 54 55 57 56 55 54 52 50 53 57 59 59 59 61 63 63 66
53 55 54 52 52 52 54 55 57 57 57 56 56 56 57 58 58 59 60 60 61 62
45 48 50 52 54 53 51 54 57 58 59 61 60 60 58 58 58 56 56 58 62 58
Wind_Direction_850mb
170 170 169 173 173 162 152 144 40 340 346 347 343 339 338 336 336 334 333 333 331 329
180 180 181 181 180 181 189 191 287 349 349 349 341 338 334 332 332 331 330 329 328 326
188 188 188 187 191 190 181 174 347 348 343 339 335 333 331 330 329 329 328 328 327 325
195 195 193 194 196 200 208 284 330 342 339 335 330 325 324 325 327 328 327 326 326 324
205 200 202 204 206 217 240 292 328 331 327 325 323 320 320 323 324 324 325 325 326 324
209 210 212 214 220 237 261 294 304 313 318 318 316 316 317 319 321 322 324 325 324 323
217 217 220 224 233 250 266 279 289 298 306 309 313 317 316 314 314 316 318 319 319 319
219 221 226 233 242 253 263 273 280 286 292 298 308 315 313 310 309 310 313 314 315 316
223 226 232 239 248 257 265 272 277 278 283 290 300 309 311 308 306 307 310 313 315 316
229 231 237 244 253 263 269 272 275 275 279 281 290 300 307 306 304 305 309 312 314 315
233 235 240 248 257 264 270 274 275 274 276 281 290 299 305 304 302 305 308 311 313 314
235 237 244 253 261 267 272 274 274 273 276 281 288 298 302 300 298 302 305 309 313 315
236 240 250 258 263 267 271 273 273 275 278 282 289 294 295 292 293 298 302 305 310 311
241 246 253 256 257 262 268 273 273 275 278 280 285 290 290 288 291 295 298 303 307 309